| time (UTC) | temp F | wind direction | speed knots | gust knots | rain 1hr in | rain 24hr in | rain mn in | humidity % | barometer mb |
| 20260509135053 | 53 | 0 | 0.0 | 9.6 | 0.00 | 0.00 | 0.00 | 85 | 1001.4 |
| 20260509134557 | 53 | 0 | 0.0 | 10.4 | 0.00 | 0.00 | 0.00 | 87 | 1001.4 |
| 20260509134053 | 52 | 0 | 0.0 | 10.4 | 0.00 | 0.00 | 0.00 | 87 | 1001.3 |
| 20260509133556 | 52 | 0 | 0.0 | 7.8 | 0.00 | 0.00 | 0.00 | 87 | 1001.4 |
| 20260509133054 | 52 | 0 | 0.0 | 4.3 | 0.00 | 0.00 | 0.00 | 88 | 1001.5 |
| 20260509132558 | 52 | 0 | 0.0 | 5.2 | 0.00 | 0.00 | 0.00 | 87 | 1001.4 |
| 20260509132055 | 52 | 0 | 0.0 | 5.2 | 0.00 | 0.00 | 0.00 | 89 | 1001.4 |
| 20260509131604 | 51 | 250 | 0.0 | 5.2 | 0.00 | 0.00 | 0.00 | 89 | 1001.3 |
| 20260509131054 | 51 | 0 | 0.0 | 5.2 | 0.00 | 0.00 | 0.00 | 88 | 1001.4 |
| 20260509130554 | 52 | 0 | 0.0 | 7.0 | 0.00 | 0.00 | 0.00 | 89 | 1001.6 |
| 20260509130054 | 51 | 0 | 0.0 | 7.0 | 0.00 | 0.00 | 0.00 | 90 | 1001.4 |
| 20260509125553 | 51 | 0 | 0.0 | 6.1 | 0.00 | 0.00 | 0.00 | 90 | 1001.3 |
| 20260509125054 | 51 | 0 | 0.0 | 12.2 | 0.00 | 0.00 | 0.00 | 90 | 1001.3 |
| 20260509124559 | 51 | 0 | 0.0 | 12.2 | 0.00 | 0.00 | 0.00 | 90 | 1001.3 |
| 20260509124054 | 51 | 0 | 0.0 | 3.5 | 0.00 | 0.00 | 0.00 | 90 | 1001.4 |
| 20260509123554 | 51 | 0 | 0.0 | 3.5 | 0.00 | 0.00 | 0.00 | 91 | 1001.2 |
| 20260509123058 | 50 | 0 | 0.0 | 3.5 | 0.00 | 0.00 | 0.00 | 91 | 1001.3 |
| 20260509122554 | 50 | 0 | 0.0 | 2.6 | 0.00 | 0.00 | 0.00 | 91 | 1001.4 |
| 20260509122053 | 50 | 0 | 0.0 | 7.0 | 0.00 | 0.00 | 0.00 | 91 | 1001.4 |
| 20260509121552 | 50 | 0 | 0.0 | 7.0 | 0.00 | 0.00 | 0.00 | 91 | 1001.4 |
| 20260509121057 | 50 | 0 | 0.0 | 4.3 | 0.00 | 0.00 | 0.00 | 91 | 1001.3 |
| 20260509120554 | 50 | 0 | 0.0 | 7.8 | 0.00 | 0.00 | 0.00 | 91 | 1001.5 |
| 20260509120055 | 50 | 0 | 0.0 | 7.8 | 0.00 | 0.00 | 0.00 | 91 | 1001.3 |
| 20260509115556 | 50 | 223 | 0.0 | 5.2 | 0.00 | 0.00 | 0.00 | 91 | 1001.3 |
| 20260509115054 | 50 | 0 | 0.0 | 5.2 | 0.00 | 0.00 | 0.00 | 91 | 1001.3 |
| 20260509114554 | 50 | 0 | 0.0 | 4.3 | 0.00 | 0.00 | 0.00 | 91 | 1001.3 |
| 20260509114054 | 50 | 0 | 0.0 | 9.6 | 0.00 | 0.00 | 0.00 | 91 | 1001.3 |
| 20260509113557 | 50 | 0 | 0.9 | 9.6 | 0.00 | 0.00 | 0.00 | 91 | 1001.3 |
| 20260509113113 | 50 | 0 | 0.0 | 6.1 | 0.00 | 0.00 | 0.00 | 91 | 1001.3 |
| 20260509112555 | 50 | 0 | 0.0 | 6.1 | 0.00 | 0.00 | 0.00 | 91 | 1001.1 |
| 20260509112054 | 50 | 0 | 0.0 | 6.1 | 0.00 | 0.00 | 0.00 | 91 | 1000.9 |
| 20260509111602 | 50 | 0 | 0.0 | 6.1 | 0.00 | 0.00 | 0.00 | 91 | 1000.9 |
| 20260509111054 | 50 | 0 | 0.0 | 7.0 | 0.00 | 0.00 | 0.00 | 91 | 1000.8 |
| 20260509110553 | 50 | 0 | 0.0 | 9.6 | 0.00 | 0.00 | 0.00 | 91 | 1000.8 |
| 20260509110052 | 50 | 0 | 0.0 | 9.6 | 0.00 | 0.00 | 0.00 | 91 | 1000.7 |
| 20260509105554 | 50 | 0 | 0.0 | 2.6 | 0.00 | 0.00 | 0.00 | 92 | 1000.8 |
| 20260509105054 | 50 | 0 | 0.0 | 2.6 | 0.00 | 0.00 | 0.00 | 91 | 1000.8 |
| 20260509104559 | 50 | 0 | 0.0 | 4.3 | 0.00 | 0.00 | 0.00 | 92 | 1000.7 |
| 20260509104058 | 50 | 0 | 0.0 | 4.3 | 0.00 | 0.00 | 0.00 | 92 | 1000.9 |
| 20260509103554 | 50 | 143 | 0.0 | 4.3 | 0.00 | 0.00 | 0.00 | 92 | 1000.9 |
| 20260509103058 | 50 | 0 | 0.0 | 8.7 | 0.00 | 0.00 | 0.00 | 91 | 1000.9 |
| 20260509102554 | 50 | 0 | 0.0 | 8.7 | 0.00 | 0.00 | 0.00 | 91 | 1000.8 |
| 20260509102055 | 50 | 0 | 0.0 | 9.6 | 0.00 | 0.00 | 0.00 | 91 | 1001.0 |
| 20260509101555 | 50 | 256 | 0.0 | 9.6 | 0.00 | 0.00 | 0.00 | 91 | 1001.0 |
| 20260509101054 | 50 | 0 | 0.0 | 6.1 | 0.00 | 0.00 | 0.00 | 91 | 1001.0 |
| 20260509100554 | 50 | 0 | 0.0 | 7.0 | 0.00 | 0.00 | 0.00 | 91 | 1000.9 |
| 20260509100109 | 50 | 0 | 0.0 | 13.0 | 0.00 | 0.00 | 0.00 | 91 | 1000.9 |
| 20260509095554 | 50 | 0 | 0.0 | 13.0 | 0.00 | 0.00 | 0.00 | 91 | 1001.0 |
| 20260509095055 | 50 | 233 | 0.0 | 7.0 | 0.00 | 0.00 | 0.00 | 91 | 1000.9 |
| 20260509094556 | 50 | 0 | 0.0 | 7.0 | 0.00 | 0.00 | 0.00 | 91 | 1001.0 |
| 20260509094054 | 50 | 0 | 0.0 | 6.1 | 0.00 | 0.00 | 0.00 | 91 | 1001.1 |
| 20260509093554 | 50 | 0 | 0.0 | 6.1 | 0.00 | 0.00 | 0.00 | 91 | 1001.1 |
| 20260509093053 | 50 | 0 | 0.0 | 6.1 | 0.00 | 0.00 | 0.00 | 91 | 1001.2 |
| 20260509092556 | 50 | 0 | 0.0 | 4.3 | 0.00 | 0.00 | 0.00 | 91 | 1001.3 |
| 20260509092054 | 50 | 0 | 0.0 | 4.3 | 0.00 | 0.00 | 0.00 | 91 | 1001.3 |
| 20260509091611 | 50 | 0 | 0.0 | 4.3 | 0.00 | 0.00 | 0.00 | 91 | 1001.4 |
| 20260509091054 | 50 | 0 | 0.0 | 4.3 | 0.00 | 0.00 | 0.00 | 91 | 1001.5 |
| 20260509090554 | 50 | 0 | 0.0 | 8.7 | 0.00 | 0.00 | 0.00 | 91 | 1001.6 |
| 20260509090054 | 50 | 205 | 0.0 | 8.7 | 0.00 | 0.00 | 0.00 | 91 | 1001.7 |
| 20260509085558 | 50 | 0 | 0.0 | 3.5 | 0.00 | 0.00 | 0.00 | 91 | 1001.7 |
| 20260509085057 | 50 | 252 | 0.0 | 1.7 | 0.00 | 0.00 | 0.00 | 91 | 1001.7 |
| 20260509084557 | 50 | 0 | 0.0 | 0.9 | 0.00 | 0.00 | 0.00 | 90 | 1001.7 |
| 20260509084055 | 50 | 0 | 0.0 | 1.7 | 0.00 | 0.00 | 0.00 | 90 | 1001.7 |
| 20260509083554 | 51 | 0 | 0.0 | 3.5 | 0.00 | 0.00 | 0.00 | 89 | 1001.8 |
| 20260509083056 | 51 | 0 | 0.0 | 3.5 | 0.00 | 0.00 | 0.00 | 89 | 1001.8 |
| 20260509082553 | 51 | 0 | 0.0 | 4.3 | 0.00 | 0.00 | 0.00 | 89 | 1001.9 |
| 20260509082055 | 51 | 0 | 0.0 | 4.3 | 0.00 | 0.00 | 0.00 | 89 | 1002.1 |
| 20260509081558 | 51 | 0 | 0.0 | 4.3 | 0.00 | 0.00 | 0.00 | 89 | 1002.1 |
| 20260509081054 | 51 | 0 | 0.0 | 4.3 | 0.00 | 0.00 | 0.00 | 89 | 1002.1 |
| 20260509080554 | 51 | 0 | 0.0 | 8.7 | 0.00 | 0.00 | 0.00 | 89 | 1002.1 |
| 20260509080101 | 51 | 226 | 0.0 | 8.7 | 0.00 | 0.00 | 0.00 | 89 | 1002.3 |
| 20260509075553 | 51 | 0 | 0.0 | 3.5 | 0.00 | 0.00 | 0.00 | 89 | 1002.3 |
| 20260509075054 | 51 | 0 | 0.0 | 2.6 | 0.00 | 0.00 | 0.00 | 89 | 1002.3 |
| 20260509074554 | 51 | 0 | 0.0 | 1.7 | 0.00 | 0.00 | 0.00 | 89 | 1002.3 |
| 20260509074054 | 51 | 0 | 0.0 | 0.9 | 0.00 | 0.00 | 0.00 | 89 | 1002.6 |
| 20260509073557 | 51 | 0 | 0.0 | 0.9 | 0.00 | 0.00 | 0.00 | 88 | 1002.5 |
| 20260509073104 | 51 | 0 | 0.0 | 4.3 | 0.00 | 0.00 | 0.00 | 88 | 1002.5 |
| 20260509072554 | 51 | 0 | 0.0 | 6.1 | 0.00 | 0.00 | 0.00 | 88 | 1002.6 |
| 20260509072053 | 51 | 0 | 0.0 | 6.1 | 0.00 | 0.00 | 0.00 | 88 | 1002.8 |
| 20260509071556 | 51 | 136 | 0.0 | 4.3 | 0.00 | 0.00 | 0.00 | 88 | 1002.8 |
| 20260509071054 | 51 | 0 | 0.0 | 7.8 | 0.00 | 0.00 | 0.00 | 87 | 1002.8 |
| 20260509070554 | 52 | 186 | 0.0 | 7.8 | 0.00 | 0.00 | 0.00 | 87 | 1002.9 |
| 20260509070059 | 52 | 0 | 0.0 | 7.8 | 0.00 | 0.00 | 0.00 | 86 | 1003.1 |
| 20260509065554 | 52 | 208 | 0.0 | 7.8 | 0.00 | 0.00 | 0.00 | 85 | 1003.2 |
| 20260509065054 | 52 | 0 | 0.0 | 7.0 | 0.00 | 0.00 | 0.00 | 84 | 1003.2 |
| 20260509064554 | 53 | 0 | 0.0 | 7.0 | 0.00 | 0.00 | 0.00 | 83 | 1003.2 |
| 20260509064055 | 53 | 0 | 0.9 | 6.1 | 0.00 | 0.00 | 0.00 | 82 | 1003.4 |
| 20260509063555 | 54 | 0 | 0.0 | 7.8 | 0.00 | 0.00 | 0.00 | 80 | 1003.4 |
| 20260509063100 | 54 | 0 | 0.0 | 7.8 | 0.00 | 0.00 | 0.00 | 78 | 1003.6 |
| 20260509062553 | 54 | 0 | 0.0 | 9.6 | 0.00 | 0.00 | 0.00 | 76 | 1003.5 |
| 20260509062053 | 55 | 0 | 0.0 | 9.6 | 0.00 | 0.00 | 0.00 | 73 | 1003.4 |
| 20260509061606 | 55 | 225 | 0.0 | 6.1 | 0.00 | 0.00 | 0.00 | 69 | 1003.4 |
| 20260509061053 | 55 | 0 | 0.0 | 3.5 | 0.00 | 0.00 | 0.00 | 67 | 1003.6 |
| 20260509060554 | 56 | 171 | 0.0 | 6.1 | 0.00 | 0.00 | 0.00 | 64 | 1003.7 |
| 20260509060054 | 56 | 0 | 0.0 | 6.1 | 0.00 | 0.00 | 0.00 | 61 | 1003.7 |
| 20260509055558 | 56 | 0 | 0.9 | 6.1 | 0.00 | 0.00 | 0.00 | 58 | 1003.8 |
| 20260509055053 | 56 | 0 | 0.0 | 6.1 | 0.00 | 0.00 | 0.00 | 55 | 1003.8 |
| 20260509054559 | 57 | 0 | 0.0 | 11.3 | 0.00 | 0.00 | 0.00 | 54 | 1003.7 |
| 20260509054053 | 57 | 0 | 0.9 | 11.3 | 0.00 | 0.00 | 0.00 | 52 | 1003.7 |
| 20260509053554 | 57 | 236 | 0.9 | 11.3 | 0.00 | 0.00 | 0.00 | 51 | 1003.8 |
| 20260509053101 | 57 | 0 | 0.0 | 7.0 | 0.00 | 0.00 | 0.00 | 50 | 1003.9 |
| 20260509052553 | 57 | 0 | 0.0 | 4.3 | 0.00 | 0.00 | 0.00 | 50 | 1004.0 |
| 20260509052057 | 56 | 0 | 0.0 | 10.4 | 0.00 | 0.00 | 0.00 | 50 | 1003.9 |
| 20260509051554 | 56 | 0 | 0.0 | 10.4 | 0.00 | 0.00 | 0.00 | 50 | 1003.9 |
| 20260509051053 | 56 | 177 | 0.0 | 5.2 | 0.00 | 0.00 | 0.00 | 50 | 1003.8 |
| 20260509050553 | 55 | 0 | 0.0 | 5.2 | 0.00 | 0.00 | 0.00 | 50 | 1003.9 |
| 20260509050051 | 54 | 0 | 0.0 | 2.6 | 0.00 | 0.00 | 0.00 | 51 | 1004.0 |
| 20260509045553 | 53 | 0 | 0.0 | 2.6 | 0.00 | 0.00 | 0.00 | 52 | 1003.9 |
| 20260509045054 | 53 | 0 | 0.0 | 3.5 | 0.00 | 0.00 | 0.00 | 53 | 1003.9 |
| 20260509044557 | 52 | 0 | 0.0 | 3.5 | 0.00 | 0.00 | 0.00 | 54 | 1004.1 |
| 20260509044054 | 52 | 0 | 0.0 | 0.9 | 0.00 | 0.00 | 0.00 | 54 | 1004.1 |
| 20260509043557 | 52 | 0 | 0.0 | 0.0 | 0.00 | 0.00 | 0.00 | 55 | 1004.0 |
| 20260509043100 | 52 | 0 | 0.0 | 0.0 | 0.00 | 0.00 | 0.00 | 55 | 1004.0 |
| 20260509042554 | 52 | 0 | 0.0 | 0.0 | 0.00 | 0.00 | 0.00 | 55 | 1004.1 |
| 20260509042057 | 52 | 0 | 0.0 | 0.0 | 0.00 | 0.00 | 0.00 | 55 | 1004.1 |
| 20260509041552 | 53 | 0 | 0.0 | 0.0 | 0.00 | 0.00 | 0.00 | 56 | 1004.1 |
| 20260509041054 | 53 | 0 | 0.0 | 0.0 | 0.00 | 0.00 | 0.00 | 57 | 1004.2 |
| 20260509040553 | 53 | 0 | 0.0 | 0.0 | 0.00 | 0.00 | 0.00 | 57 | 1004.3 |
| 20260509040057 | 53 | 0 | 0.0 | 0.0 | 0.00 | 0.00 | 0.00 | 57 | 1004.4 |
| 20260509035555 | 54 | 0 | 0.0 | 0.0 | 0.00 | 0.00 | 0.00 | 57 | 1004.5 |
| 20260509035053 | 54 | 0 | 0.0 | 0.0 | 0.00 | 0.00 | 0.00 | 56 | 1004.5 |
| 20260509034601 | 54 | 0 | 0.0 | 0.0 | 0.00 | 0.00 | 0.00 | 57 | 1004.5 |
| 20260509034053 | 54 | 0 | 0.0 | 0.0 | 0.00 | 0.00 | 0.00 | 56 | 1004.6 |
| 20260509033554 | 54 | 0 | 0.0 | 0.9 | 0.00 | 0.00 | 0.00 | 55 | 1004.7 |
| 20260509033056 | 54 | 0 | 0.0 | 0.9 | 0.00 | 0.00 | 0.00 | 53 | 1004.7 |
| 20260509032554 | 54 | 0 | 0.0 | 0.9 | 0.00 | 0.00 | 0.00 | 51 | 1004.9 |
| 20260509032053 | 54 | 0 | 0.0 | 1.7 | 0.00 | 0.00 | 0.00 | 48 | 1004.9 |
| 20260509031602 | 54 | 0 | 0.0 | 1.7 | 0.00 | 0.00 | 0.00 | 45 | 1004.9 |
| 20260509031054 | 54 | 0 | 0.0 | 1.7 | 0.00 | 0.00 | 0.00 | 42 | 1004.9 |
| 20260509030554 | 54 | 0 | 0.0 | 1.7 | 0.00 | 0.00 | 0.00 | 39 | 1005.1 |
| 20260509030056 | 54 | 0 | 0.0 | 0.9 | 0.00 | 0.00 | 0.00 | 37 | 1005.1 |
| 20260509025553 | 53 | 0 | 0.0 | 0.0 | 0.00 | 0.00 | 0.00 | 36 | 1005.2 |
| 20260509025057 | 53 | 0 | 0.0 | 2.6 | 0.00 | 0.00 | 0.00 | 37 | 1005.2 |
| 20260509024556 | 53 | 0 | 0.0 | 2.6 | 0.00 | 0.00 | 0.00 | 36 | 1005.2 |
| 20260509024054 | 53 | 0 | 0.0 | 2.6 | 0.00 | 0.00 | 0.00 | 36 | 1005.2 |
| 20260509023555 | 53 | 0 | 0.0 | 0.9 | 0.00 | 0.00 | 0.00 | 36 | 1005.3 |
| 20260509023100 | 53 | 0 | 0.0 | 3.5 | 0.00 | 0.00 | 0.00 | 36 | 1005.3 |
| 20260509022553 | 52 | 0 | 0.0 | 3.5 | 0.00 | 0.00 | 0.00 | 36 | 1005.3 |
| 20260509022053 | 52 | 0 | 0.0 | 0.0 | 0.00 | 0.00 | 0.00 | 37 | 1005.4 |
| 20260509021559 | 51 | 0 | 0.0 | 0.9 | 0.00 | 0.00 | 0.00 | 37 | 1005.4 |
| 20260509021053 | 50 | 0 | 0.0 | 0.9 | 0.00 | 0.00 | 0.00 | 38 | 1005.5 |
| 20260509020553 | 49 | 0 | 0.0 | 0.9 | 0.00 | 0.00 | 0.00 | 40 | 1005.5 |
| 20260509020056 | 49 | 0 | 0.0 | 0.0 | 0.00 | 0.00 | 0.00 | 40 | 1005.5 |
| 20260509015553 | 48 | 0 | 0.0 | 0.0 | 0.00 | 0.00 | 0.00 | 43 | 1005.4 |
| 20260509015053 | 49 | 0 | 0.0 | 0.0 | 0.00 | 0.00 | 0.00 | 43 | 1005.5 |
| 20260509014600 | 49 | 0 | 0.0 | 0.0 | 0.00 | 0.00 | 0.00 | 45 | 1005.5 |
| 20260509014052 | 49 | 0 | 0.0 | 0.0 | 0.00 | 0.00 | 0.00 | 43 | 1005.5 |
| 20260509013554 | 49 | 0 | 0.0 | 0.0 | 0.00 | 0.00 | 0.00 | 42 | 1005.5 |
| 20260509013058 | 50 | 0 | 0.0 | 0.0 | 0.00 | 0.00 | 0.00 | 43 | 1005.4 |
| 20260509012554 | 50 | 0 | 0.0 | 0.0 | 0.00 | 0.00 | 0.00 | 41 | 1005.3 |
| 20260509012056 | 51 | 0 | 0.0 | 0.0 | 0.00 | 0.00 | 0.00 | 42 | 1005.3 |
| 20260509011553 | 52 | 0 | 0.0 | 0.0 | 0.00 | 0.00 | 0.00 | 40 | 1005.3 |
| 20260509011053 | 52 | 0 | 0.0 | 0.0 | 0.00 | 0.00 | 0.00 | 37 | 1005.4 |
| 20260509010553 | 53 | 0 | 0.0 | 0.0 | 0.00 | 0.00 | 0.00 | 38 | 1005.3 |
| 20260509010054 | 54 | 0 | 0.0 | 0.0 | 0.00 | 0.00 | 0.00 | 35 | 1005.4 |
| 20260509005553 | 54 | 0 | 0.0 | 0.0 | 0.00 | 0.00 | 0.00 | 32 | 1005.4 |
| 20260509005054 | 55 | 0 | 0.0 | 0.0 | 0.00 | 0.00 | 0.00 | 31 | 1005.3 |
| 20260509004553 | 55 | 0 | 0.0 | 0.0 | 0.00 | 0.00 | 0.00 | 30 | 1005.4 |
| 20260509004053 | 55 | 0 | 0.0 | 0.0 | 0.00 | 0.00 | 0.00 | 29 | 1005.4 |
| 20260509003553 | 56 | 0 | 0.0 | 0.0 | 0.00 | 0.00 | 0.00 | 29 | 1005.4 |
| 20260509003106 | 56 | 0 | 0.0 | 0.0 | 0.00 | 0.00 | 0.00 | 30 | 1005.4 |
| 20260509002553 | 56 | 0 | 0.0 | 0.0 | 0.00 | 0.00 | 0.00 | 28 | 1005.5 |
| 20260509002054 | 56 | 0 | 0.0 | 0.0 | 0.00 | 0.00 | 0.00 | 27 | 1005.4 |
| 20260509001559 | 57 | 0 | 0.0 | 0.0 | 0.00 | 0.00 | 0.00 | 28 | 1005.5 |
| 20260509001054 | 57 | 0 | 0.0 | 0.0 | 0.00 | 0.00 | 0.00 | 28 | 1005.6 |
| 20260509000553 | 57 | 0 | 0.0 | 0.9 | 0.00 | 0.00 | 0.00 | 27 | 1005.7 |
| 20260509000104 | 57 | 0 | 0.0 | 0.9 | 0.00 | 0.00 | 0.00 | 28 | 1005.7 |
| 20260508235554 | 57 | 0 | 0.0 | 0.9 | 0.00 | 0.00 | 0.00 | 28 | 1005.7 |
| 20260508235054 | 57 | 0 | 0.0 | 0.9 | 0.00 | 0.00 | 0.00 | 29 | 1005.9 |
| 20260508234559 | 57 | 0 | 0.0 | 3.5 | 0.00 | 0.00 | 0.00 | 29 | 1005.8 |
| 20260508234053 | 57 | 0 | 0.0 | 3.5 | 0.00 | 0.00 | 0.00 | 29 | 1005.9 |
| 20260508233553 | 57 | 0 | 0.0 | 3.5 | 0.00 | 0.00 | 0.00 | 31 | 1006.0 |
| 20260508233105 | 57 | 0 | 0.0 | 0.9 | 0.00 | 0.00 | 0.00 | 30 | 1006.0 |
| 20260508232553 | 57 | 0 | 0.0 | 5.2 | 0.00 | 0.00 | 0.00 | 32 | 1006.1 |
| 20260508232054 | 57 | 0 | 0.0 | 5.2 | 0.00 | 0.00 | 0.00 | 33 | 1006.1 |
| 20260508231632 | 57 | 0 | 0.0 | 3.5 | 0.00 | 0.00 | 0.00 | 32 | 1006.1 |
| 20260508231053 | 57 | 0 | 0.0 | 1.7 | 0.00 | 0.00 | 0.00 | 33 | 1006.2 |
| 20260508230553 | 58 | 0 | 0.0 | 3.5 | 0.00 | 0.00 | 0.00 | 34 | 1006.3 |
| 20260508225554 | 58 | 229 | 0.0 | 3.5 | 0.00 | 0.00 | 0.00 | 34 | 1006.2 |
| 20260508225053 | 58 | 0 | 0.0 | 5.2 | 0.00 | 0.00 | 0.00 | 34 | 1006.5 |
| 20260508224608 | 58 | 0 | 0.0 | 5.2 | 0.00 | 0.00 | 0.00 | 34 | 1006.6 |
| 20260508224054 | 58 | 0 | 0.0 | 7.0 | 0.00 | 0.00 | 0.00 | 34 | 1006.5 |
| 20260508223554 | 58 | 0 | 0.0 | 7.0 | 0.00 | 0.00 | 0.00 | 35 | 1006.6 |
| 20260508223058 | 59 | 0 | 0.0 | 4.3 | 0.00 | 0.00 | 0.00 | 35 | 1006.8 |
| 20260508222554 | 59 | 0 | 0.0 | 4.3 | 0.00 | 0.00 | 0.00 | 36 | 1006.7 |
| 20260508222053 | 59 | 0 | 0.0 | 6.1 | 0.00 | 0.00 | 0.00 | 35 | 1006.7 |
| 20260508221616 | 59 | 0 | 0.0 | 6.1 | 0.00 | 0.00 | 0.00 | 36 | 1006.9 |
| 20260508221054 | 60 | 211 | 0.0 | 5.2 | 0.00 | 0.00 | 0.00 | 35 | 1006.8 |
| 20260508220553 | 60 | 231 | 0.0 | 5.2 | 0.00 | 0.00 | 0.00 | 37 | 1007.0 |
| 20260508220104 | 60 | 0 | 0.0 | 5.2 | 0.00 | 0.00 | 0.00 | 36 | 1007.0 |
| 20260508215553 | 59 | 0 | 0.0 | 4.3 | 0.00 | 0.00 | 0.00 | 39 | 1007.0 |
| 20260508215053 | 59 | 0 | 0.0 | 5.2 | 0.00 | 0.00 | 0.00 | 38 | 1007.0 |
| 20260508214639 | 59 | 0 | 0.0 | 5.2 | 0.00 | 0.00 | 0.00 | 40 | 1007.1 |
| 20260508214056 | 59 | 227 | 0.9 | 7.8 | 0.00 | 0.00 | 0.00 | 40 | 1007.1 |
| 20260508213556 | 59 | 0 | 0.0 | 7.8 | 0.00 | 0.00 | 0.00 | 38 | 1007.1 |
| 20260508213057 | 59 | 0 | 0.0 | 7.8 | 0.00 | 0.00 | 0.00 | 42 | 1007.1 |
| 20260508212553 | 60 | 0 | 0.0 | 3.5 | 0.00 | 0.00 | 0.00 | 40 | 1007.2 |
| 20260508212055 | 60 | 0 | 0.0 | 4.3 | 0.00 | 0.00 | 0.00 | 43 | 1007.2 |
| 20260508211556 | 60 | 0 | 0.0 | 4.3 | 0.00 | 0.00 | 0.00 | 42 | 1007.2 |
| 20260508211054 | 60 | 0 | 0.0 | 4.3 | 0.00 | 0.00 | 0.00 | 45 | 1007.2 |
| 20260508210553 | 60 | 0 | 0.0 | 7.0 | 0.00 | 0.00 | 0.00 | 45 | 1007.3 |
| 20260508210100 | 60 | 0 | 0.0 | 7.8 | 0.00 | 0.00 | 0.00 | 46 | 1007.4 |
| 20260508205554 | 60 | 0 | 0.9 | 7.8 | 0.00 | 0.00 | 0.00 | 44 | 1007.4 |
| 20260508205054 | 60 | 0 | 0.0 | 7.0 | 0.00 | 0.00 | 0.00 | 44 | 1007.5 |
| 20260508204555 | 60 | 0 | 0.0 | 7.0 | 0.00 | 0.00 | 0.00 | 46 | 1007.6 |
| 20260508204054 | 60 | 0 | 0.0 | 6.1 | 0.00 | 0.00 | 0.00 | 48 | 1007.7 |
| 20260508203555 | 60 | 0 | 0.0 | 7.0 | 0.00 | 0.00 | 0.00 | 52 | 1007.8 |
| 20260508203115 | 59 | 0 | 0.0 | 9.6 | 0.00 | 0.00 | 0.00 | 52 | 1007.9 |
| 20260508202554 | 59 | 275 | 0.0 | 9.6 | 0.00 | 0.00 | 0.00 | 53 | 1007.9 |
| 20260508202055 | 59 | 223 | 0.9 | 6.1 | 0.00 | 0.00 | 0.00 | 52 | 1007.9 |
| 20260508201555 | 59 | 0 | 0.0 | 7.8 | 0.00 | 0.00 | 0.00 | 55 | 1007.9 |
| 20260508201055 | 59 | 0 | 0.0 | 7.8 | 0.00 | 0.00 | 0.00 | 54 | 1008.0 |
| 20260508200556 | 59 | 0 | 0.0 | 7.8 | 0.00 | 0.00 | 0.00 | 55 | 1008.0 |
| 20260508200057 | 59 | 0 | 0.0 | 3.5 | 0.00 | 0.00 | 0.00 | 54 | 1008.2 |
| 20260508195555 | 59 | 0 | 0.0 | 1.7 | 0.00 | 0.00 | 0.00 | 54 | 1008.2 |
| 20260508195056 | 59 | 0 | 0.0 | 2.6 | 0.00 | 0.00 | 0.00 | 56 | 1008.2 |
| 20260508194555 | 59 | 0 | 0.0 | 2.6 | 0.00 | 0.00 | 0.00 | 57 | 1008.3 |
| 20260508194054 | 59 | 0 | 0.0 | 3.5 | 0.00 | 0.00 | 0.00 | 56 | 1008.3 |
| 20260508193554 | 59 | 0 | 0.0 | 3.5 | 0.00 | 0.00 | 0.00 | 59 | 1008.4 |
| 20260508193127 | 59 | 0 | 0.0 | 4.3 | 0.00 | 0.00 | 0.00 | 62 | 1008.5 |
| 20260508192554 | 59 | 0 | 0.0 | 4.3 | 0.00 | 0.00 | 0.00 | 60 | 1008.6 |
| 20260508192055 | 60 | 0 | 0.0 | 7.0 | 0.00 | 0.00 | 0.00 | 63 | 1008.6 |
| 20260508191603 | 59 | 0 | 0.0 | 7.0 | 0.00 | 0.00 | 0.00 | 63 | 1008.5 |
| 20260508191055 | 59 | 0 | 0.0 | 3.5 | 0.00 | 0.00 | 0.00 | 57 | 1008.6 |
| 20260508190555 | 59 | 0 | 0.0 | 3.5 | 0.00 | 0.00 | 0.00 | 57 | 1008.7 |
| 20260508190057 | 59 | 0 | 0.0 | 4.3 | 0.00 | 0.00 | 0.00 | 62 | 1008.7 |
| 20260508185556 | 60 | 0 | 0.0 | 4.3 | 0.00 | 0.00 | 0.00 | 59 | 1008.9 |
| 20260508185055 | 61 | 0 | 0.0 | 8.7 | 0.00 | 0.00 | 0.00 | 59 | 1008.9 |
| 20260508184556 | 61 | 0 | 0.0 | 8.7 | 0.00 | 0.00 | 0.00 | 62 | 1009.0 |
| 20260508184055 | 60 | 0 | 0.0 | 7.8 | 0.00 | 0.00 | 0.00 | 63 | 1008.9 |
| 20260508183554 | 60 | 0 | 0.0 | 6.1 | 0.00 | 0.00 | 0.00 | 62 | 1009.0 |
| 20260508183057 | 60 | 0 | 0.0 | 6.1 | 0.00 | 0.00 | 0.00 | 61 | 1008.9 |
| 20260508182555 | 59 | 0 | 0.0 | 7.0 | 0.00 | 0.00 | 0.00 | 60 | 1009.0 |
| 20260508182056 | 59 | 0 | 0.0 | 7.0 | 0.00 | 0.00 | 0.00 | 58 | 1009.0 |
| 20260508181557 | 59 | 0 | 0.0 | 7.0 | 0.00 | 0.00 | 0.00 | 54 | 1009.0 |
| 20260508181054 | 60 | 0 | 0.0 | 5.2 | 0.00 | 0.00 | 0.00 | 54 | 1009.1 |
| 20260508180554 | 60 | 0 | 0.0 | 2.6 | 0.00 | 0.00 | 0.00 | 54 | 1009.1 |
| 20260508180114 | 60 | 0 | 0.0 | 7.0 | 0.00 | 0.00 | 0.00 | 56 | 1009.3 |
| 20260508175555 | 60 | 0 | 0.0 | 7.0 | 0.00 | 0.00 | 0.00 | 56 | 1009.3 |
| 20260508175054 | 60 | 0 | 0.0 | 2.6 | 0.00 | 0.00 | 0.00 | 52 | 1009.3 |
| 20260508174611 | 60 | 0 | 0.0 | 2.6 | 0.00 | 0.00 | 0.00 | 53 | 1009.4 |
| 20260508174055 | 60 | 0 | 0.0 | 4.3 | 0.00 | 0.00 | 0.00 | 55 | 1009.4 |
| 20260508173555 | 60 | 233 | 0.0 | 4.3 | 0.00 | 0.00 | 0.00 | 55 | 1009.5 |
| 20260508173057 | 60 | 0 | 0.0 | 3.5 | 0.00 | 0.00 | 0.00 | 51 | 1009.7 |
| 20260508172557 | 60 | 0 | 0.0 | 6.1 | 0.00 | 0.00 | 0.00 | 52 | 1009.6 |
| 20260508172055 | 60 | 232 | 0.0 | 6.1 | 0.00 | 0.00 | 0.00 | 49 | 1009.7 |
| 20260508171555 | 61 | 0 | 0.0 | 4.3 | 0.00 | 0.00 | 0.00 | 46 | 1009.7 |
| 20260508171058 | 61 | 0 | 0.0 | 1.7 | 0.00 | 0.00 | 0.00 | 50 | 1009.7 |
| 20260508170555 | 60 | 0 | 0.0 | 4.3 | 0.00 | 0.00 | 0.00 | 53 | 1009.8 |
| 20260508170056 | 60 | 0 | 0.0 | 4.3 | 0.00 | 0.00 | 0.00 | 53 | 1010.0 |
| 20260508165554 | 60 | 0 | 0.0 | 4.3 | 0.00 | 0.00 | 0.00 | 55 | 1010.0 |
| 20260508165056 | 60 | 0 | 0.0 | 5.2 | 0.00 | 0.00 | 0.00 | 55 | 1010.2 |
| 20260508164604 | 61 | 0 | 0.0 | 5.2 | 0.00 | 0.00 | 0.00 | 55 | 1010.4 |
| 20260508164054 | 60 | 0 | 0.0 | 10.4 | 0.00 | 0.00 | 0.00 | 59 | 1010.3 |
| 20260508163556 | 60 | 0 | 0.0 | 10.4 | 0.00 | 0.00 | 0.00 | 61 | 1010.5 |
| 20260508163054 | 60 | 0 | 0.9 | 10.4 | 0.00 | 0.00 | 0.00 | 59 | 1010.5 |
| 20260508162555 | 59 | 0 | 0.0 | 7.0 | 0.00 | 0.00 | 0.00 | 60 | 1010.5 |
| 20260508162055 | 59 | 0 | 0.0 | 7.8 | 0.00 | 0.00 | 0.00 | 58 | 1010.5 |
| 20260508161559 | 60 | 0 | 0.0 | 7.8 | 0.00 | 0.00 | 0.00 | 58 | 1010.6 |
| 20260508161055 | 59 | 0 | 0.0 | 7.8 | 0.00 | 0.00 | 0.00 | 63 | 1010.4 |
| 20260508160555 | 59 | 0 | 0.0 | 7.8 | 0.00 | 0.00 | 0.00 | 61 | 1010.4 |
| 20260508160056 | 59 | 0 | 0.0 | 5.2 | 0.00 | 0.00 | 0.00 | 60 | 1010.5 |
| 20260508155555 | 59 | 0 | 0.0 | 2.6 | 0.00 | 0.00 | 0.00 | 62 | 1010.5 |
| 20260508155055 | 59 | 0 | 0.0 | 0.9 | 0.00 | 0.00 | 0.00 | 63 | 1010.4 |
| 20260508154554 | 59 | 0 | 0.0 | 1.7 | 0.00 | 0.00 | 0.00 | 61 | 1010.4 |
| 20260508154054 | 59 | 0 | 0.0 | 1.7 | 0.00 | 0.00 | 0.00 | 62 | 1010.6 |
| 20260508153557 | 59 | 0 | 0.0 | 6.1 | 0.00 | 0.00 | 0.00 | 66 | 1010.4 |
| 20260508153057 | 58 | 0 | 0.0 | 6.1 | 0.00 | 0.00 | 0.00 | 67 | 1010.4 |
| 20260508152554 | 57 | 0 | 0.0 | 4.3 | 0.00 | 0.00 | 0.00 | 71 | 1010.4 |
| 20260508152054 | 56 | 0 | 0.0 | 3.5 | 0.00 | 0.00 | 0.00 | 71 | 1010.4 |
| 20260508151557 | 56 | 0 | 0.0 | 4.3 | 0.00 | 0.00 | 0.00 | 72 | 1010.6 |
| 20260508151055 | 56 | 0 | 0.0 | 7.0 | 0.00 | 0.00 | 0.00 | 74 | 1010.7 |
| 20260508150555 | 56 | 219 | 0.0 | 7.0 | 0.00 | 0.00 | 0.00 | 74 | 1010.6 |
| 20260508150056 | 56 | 0 | 0.0 | 1.7 | 0.00 | 0.00 | 0.00 | 76 | 1010.7 |
| 20260508145556 | 55 | 0 | 0.0 | 5.2 | 0.00 | 0.00 | 0.00 | 76 | 1010.7 |
| 20260508145055 | 56 | 0 | 0.0 | 5.2 | 0.00 | 0.00 | 0.00 | 74 | 1010.8 |
| 20260508144558 | 56 | 0 | 0.0 | 3.5 | 0.00 | 0.00 | 0.00 | 74 | 1010.8 |
| 20260508144055 | 56 | 0 | 0.0 | 3.5 | 0.00 | 0.00 | 0.00 | 75 | 1010.8 |
| 20260508143556 | 55 | 0 | 0.0 | 3.5 | 0.00 | 0.00 | 0.00 | 75 | 1010.8 |
| 20260508143108 | 55 | 0 | 0.0 | 6.1 | 0.00 | 0.00 | 0.00 | 73 | 1010.8 |
| 20260508142558 | 55 | 0 | 0.0 | 7.8 | 0.00 | 0.00 | 0.00 | 68 | 1010.8 |
| 20260508142055 | 56 | 0 | 0.0 | 7.8 | 0.00 | 0.00 | 0.00 | 68 | 1010.8 |
| 20260508141554 | 56 | 336 | 0.0 | 7.8 | 0.00 | 0.00 | 0.00 | 70 | 1010.8 |
| 20260508141054 | 56 | 0 | 0.9 | 7.8 | 0.00 | 0.00 | 0.00 | 69 | 1010.7 |
| 20260508140557 | 56 | 0 | 0.0 | 7.0 | 0.00 | 0.00 | 0.00 | 68 | 1010.8 |
| 20260508140106 | 56 | 0 | 0.0 | 0.9 | 0.00 | 0.00 | 0.00 | 69 | 1010.8 |
| 20260508135555 | 56 | 0 | 0.0 | 0.9 | 0.00 | 0.00 | 0.00 | 69 | 1010.8 |